CAPE
nan nan nan nan nan nan nan nan nan nan nan nan nan nan nan nan 0 0 5 2 2 1 1 1 1 0 7 48 70 70 86 89 91 91 91 88 86 86 85 82 82 84 84 86 86 86 88 86 86 86 91 91 92 92 99 101 101 110 114 127 127 142 153 168 168 186 194 202 206 206 209 210 226 226 237 247 259 259 269 272 272 287 303 308 308 318
nan nan nan nan nan nan nan nan nan nan nan nan nan nan nan nan 0 0 2 4 4 2 1 1 1 1 0 22 68 68 79 88 85 85 83 80 79 79 76 79 79 81 82 81 81 82 83 82 82 86 88 91 92 92 98 100 100 103 114 128 128 144 159 172 172 185 196 204 208 208 217 223 236 236 239 241 245 245 244 241 241 256 259 277 277 304
nan nan nan nan nan nan nan nan nan nan nan nan nan nan 0 nan 2 2 2 3 3 4 2 1 1 2 1 16 67 67 73 78 76 76 72 69 71 71 72 74 74 75 72 73 73 77 78 81 81 86 90 91 93 93 98 104 104 109 114 126 126 139 148 166 166 177 187 191 201 201 210 222 228 228 226 231 236 236 236 237 237 244 254 265 265 295
nan nan nan nan nan nan nan nan nan nan nan nan 0 0 1 2 2 2 2 2 2 4 5 5 5 2 1 5 42 42 66 68 69 69 64 61 64 64 66 68 68 67 65 68 68 72 80 80 80 85 91 92 98 98 101 105 105 111 116 123 123 132 142 148 148 157 161 172 177 177 186 198 205 205 212 225 241 241 251 245 245 253 257 275 275 298
nan nan nan nan nan nan nan nan nan nan nan 0 1 1 2 4 4 4 5 5 5 4 4 4 4 2 0 0 22 22 55 63 60 60 57 55 55 55 60 59 59 61 61 69 69 74 81 83 83 87 89 93 100 100 100 102 102 109 115 120 120 127 132 138 138 140 145 151 157 157 164 177 189 189 205 223 240 240 244 245 245 250 248 266 266 280
nan 0 0 0 0 nan nan nan 1 1 0 1 1 1 1 4 7 7 8 7 7 5 3 1 1 1 nan nan 16 16 44 49 46 46 45 46 51 51 53 57 57 59 65 69 69 78 83 88 88 90 90 92 94 94 96 99 99 105 108 114 114 119 130 132 132 134 134 140 148 148 155 162 173 173 189 197 208 208 220 226 226 225 230 241 241 258
4 1 0 0 0 nan 0 0 2 2 0 3 5 5 5 6 6 6 7 10 10 7 4 2 2 1 nan 0 17 17 32 31 28 28 30 38 46 46 55 59 59 60 67 76 76 78 83 88 88 86 89 86 90 90 89 92 92 98 101 109 109 112 119 123 123 126 129 132 134 134 144 145 152 152 165 168 178 178 189 196 196 208 215 229 229 238
2 0 1 1 1 1 2 3 6 6 3 6 15 15 22 13 8 8 3 1 1 0 nan nan nan nan nan nan nan nan nan nan nan nan 0 7 30 30 48 61 61 67 69 73 73 78 76 77 77 74 77 79 80 80 83 80 80 78 81 83 83 86 94 101 101 108 111 113 119 119 120 126 130 130 133 139 141 141 148 166 166 180 204 217 217 234
3 1 1 3 3 5 3 9 18 18 11 20 19 19 12 4 1 1 1 0 0 0 nan nan nan nan nan nan nan nan nan 1 nan nan 0 0 1 1 26 51 51 60 67 68 68 68 69 69 69 67 69 69 73 73 73 69 69 69 71 74 74 80 86 94 94 100 106 109 114 114 119 124 124 124 132 129 135 135 139 148 148 165 186 206 206 227
5 4 5 5 5 10 6 15 22 22 18 15 9 9 2 nan nan nan 0 nan nan nan nan nan nan nan nan nan nan nan nan 3 30 30 50 36 59 59 42 31 31 26 51 57 57 59 58 57 57 58 59 62 62 62 61 59 59 58 61 67 67 72 82 90 90 96 103 112 117 117 126 130 136 136 136 133 140 140 139 143 143 152 173 199 199 223
5 6 8 8 8 17 26 27 11 11 5 1 1 1 1 0 nan nan 1 0 0 0 nan nan nan nan nan nan nan nan nan nan 0 0 15 33 44 44 40 33 33 36 43 45 45 41 41 46 46 49 51 53 53 53 50 49 49 55 61 67 67 73 81 88 88 96 106 115 126 126 135 142 146 146 153 155 153 153 153 155 155 159 178 203 203 222
12 9 14 27 27 26 23 12 2 2 0 nan nan nan 1 0 0 0 1 0 0 0 nan nan nan nan nan nan 0 0 nan nan nan nan nan 0 4 4 6 2 2 8 15 20 20 27 33 41 41 42 41 38 46 46 43 41 41 51 59 67 67 74 83 88 88 99 111 123 135 135 145 151 153 153 165 164 169 169 161 163 163 170 182 207 207 225
10 12 21 26 26 17 3 1 0 0 nan 0 0 0 0 nan 1 1 0 1 1 1 nan nan nan 0 0 nan nan nan 0 nan nan nan nan nan nan nan nan nan nan nan nan nan nan nan 14 32 32 36 35 31 37 37 40 40 40 50 61 69 69 79 90 95 95 106 117 129 142 142 150 153 156 156 160 160 169 169 162 164 164 167 180 196 196 212
10 20 19 16 16 5 1 0 0 0 1 0 0 0 0 1 1 1 2 1 1 0 0 0 0 0 2 2 4 4 0 nan nan nan nan nan nan nan nan nan nan nan nan nan nan nan 6 10 10 4 20 20 21 21 26 38 38 55 63 73 73 86 92 103 103 111 123 132 137 137 145 147 150 150 150 150 153 153 153 151 151 156 164 174 174 189
24 24 9 4 4 3 2 1 1 1 0 0 0 0 0 2 2 2 2 1 1 nan 0 0 0 1 3 1 1 1 nan nan nan nan nan nan nan nan nan nan nan nan nan nan nan nan 4 2 2 nan nan 1 4 4 17 32 32 61 69 81 81 87 93 101 101 111 115 121 131 131 133 136 135 135 137 139 143 143 144 143 143 148 150 159 159 165
22 10 7 6 6 4 3 2 0 0 0 0 0 0 1 2 2 2 3 2 2 1 0 1 1 4 3 0 nan nan nan nan nan nan nan nan nan nan nan nan nan nan nan nan nan nan nan nan nan nan nan 4 25 25 39 47 47 66 75 83 83 87 89 95 95 99 105 109 115 115 121 121 123 123 126 129 129 129 130 133 133 137 142 147 147 149
9 8 6 6 6 4 3 1 0 0 1 nan 0 0 2 2 4 4 3 5 5 1 1 2 2 2 1 nan nan nan nan nan nan nan nan nan nan nan nan nan nan nan nan nan nan nan nan nan nan nan nan 11 33 33 41 52 52 66 73 78 78 82 82 87 87 90 96 100 105 105 112 113 115 115 118 120 121 121 121 126 126 126 127 130 130 131
10 7 7 6 6 5 2 nan nan nan 1 0 2 2 4 8 7 7 3 5 5 nan 3 4 4 0 nan nan nan nan nan nan nan nan nan nan nan nan nan nan nan nan nan nan nan nan nan nan nan nan nan 30 39 39 44 56 56 63 69 71 71 73 77 80 80 81 83 90 99 99 101 103 106 106 111 108 110 110 111 113 113 115 117 121 121 122
9 7 6 6 6 4 1 nan 0 0 nan 0 5 5 7 10 5 5 3 0 0 0 6 4 4 0 nan nan nan nan nan nan nan nan 0 nan nan nan nan nan nan nan nan nan nan nan nan nan nan 2 23 37 38 38 44 52 52 55 60 63 63 65 66 69 69 73 75 80 88 88 90 96 98 98 103 104 105 105 109 112 112 113 115 118 118 119
16 12 9 5 5 2 1 0 1 1 2 8 12 12 7 7 4 4 nan 2 2 7 3 nan nan nan nan nan nan nan nan nan nan nan 0 nan nan nan nan nan nan nan nan nan nan nan nan nan nan nan 16 27 35 35 39 44 44 46 51 56 56 57 55 59 59 66 69 74 74 74 79 84 87 87 92 93 97 97 102 105 105 108 113 114 114 116
14 10 6 1 1 0 1 0 2 2 11 19 9 9 6 3 0 0 1 7 7 3 nan nan nan nan nan nan nan nan nan 0 0 0 0 0 nan nan nan nan nan nan nan nan nan nan nan nan nan nan 3 23 31 31 35 37 37 39 43 47 47 47 49 54 54 58 61 66 66 66 68 69 75 75 77 80 81 81 86 94 94 100 103 111 111 115
6 3 2 1 1 1 5 2 12 12 20 12 9 9 4 nan 2 2 5 nan nan nan nan nan nan nan 0 nan nan nan nan 0 nan nan 0 nan nan nan nan nan nan nan nan nan nan nan nan nan nan nan 3 23 27 27 30 31 31 36 39 41 41 42 42 46 46 49 51 54 57 57 59 63 64 64 66 70 71 71 77 84 84 93 95 105 105 109
2 3 1 1 1 3 5 3 8 8 15 3 5 5 nan 2 4 4 nan nan nan nan nan 0 0 2 1 0 0 0 0 0 0 0 nan nan nan nan nan nan nan nan nan nan nan nan nan nan nan nan 3 24 25 25 28 29 29 33 36 36 36 37 38 40 40 42 46 48 51 51 51 54 57 57 58 60 62 62 67 71 71 79 85 88 88 100
2 2 2 3 3 1 1 3 1 1 3 3 4 4 5 4 nan nan nan nan nan nan 2 3 3 3 1 2 0 0 nan nan nan nan nan nan nan nan nan nan nan nan nan nan nan nan nan nan nan nan nan 15 21 21 24 29 29 31 32 31 31 34 36 35 35 35 38 40 40 40 42 44 45 45 48 50 51 51 53 58 58 63 70 78 78 83
5 6 6 5 5 9 8 6 24 24 21 18 11 11 2 nan 2 2 1 1 1 4 5 5 5 1 0 5 nan nan nan nan nan nan nan nan nan nan nan nan nan nan nan nan nan nan nan nan nan nan nan 0 16 16 22 27 27 28 28 28 28 29 29 28 28 27 28 29 30 30 31 33 33 33 35 36 39 39 40 45 45 51 56 61 61 68
23 17 13 27 27 68 105 132 150 150 112 40 7 7 1 4 4 4 6 7 7 5 4 0 0 0 0 nan nan nan nan nan nan nan nan nan nan nan nan nan nan nan nan nan nan nan nan nan nan nan nan nan 10 10 19 24 24 25 25 26 26 26 24 22 22 23 22 23 24 24 25 26 28 28 29 30 33 33 35 38 38 44 47 53 53 60
49 61 84 106 106 123 141 141 131 131 119 68 16 16 5 4 5 5 4 5 5 3 1 0 0 0 0 0 nan nan nan nan nan nan nan nan nan nan nan nan nan nan nan nan nan nan nan nan nan nan nan nan nan nan 14 18 18 20 21 21 21 20 19 18 18 19 19 20 21 21 22 25 26 26 27 27 29 29 34 35 35 39 41 43 43 47
51 65 84 100 100 107 98 79 66 66 62 60 68 68 34 5 5 5 5 3 3 2 0 nan nan nan 0 0 nan nan nan nan nan nan nan nan nan nan nan nan nan nan nan nan nan nan 6 0 0 nan nan nan nan nan 5 15 15 16 17 16 16 16 16 16 16 17 17 17 20 20 20 23 24 24 24 25 29 29 31 33 33 36 39 28 28 8
54 73 85 80 80 64 51 41 40 40 45 48 54 54 36 5 5 5 5 3 3 1 0 1 1 0 nan nan nan nan nan nan nan nan nan nan nan nan nan nan nan nan nan nan nan nan 0 nan nan nan nan nan nan nan nan 9 9 10 13 14 14 15 14 14 14 14 16 17 19 19 20 21 22 22 23 25 27 27 29 32 32 36 31 16 16 3
39 59 48 36 36 28 20 11 21 21 34 39 42 42 33 8 5 5 4 3 3 0 nan 1 1 0 0 0 nan nan nan nan nan nan nan nan nan nan nan nan nan nan nan nan nan nan nan nan nan nan nan nan nan nan nan nan nan nan 1 8 8 8 9 12 12 13 16 17 18 18 19 20 22 22 23 25 25 25 27 30 30 26 9 4 4 1
13 8 0 1 1 2 1 0 10 10 26 35 33 33 23 5 4 4 3 nan nan nan nan 0 0 1 nan nan nan nan nan nan nan nan nan nan nan nan nan nan nan nan nan nan nan nan nan nan nan nan nan nan nan nan nan nan nan nan nan nan nan 0 5 9 9 11 16 17 17 17 19 19 20 20 20 21 23 23 23 25 25 23 5 1 1 0
2 0 nan nan nan 0 1 1 1 1 1 2 2 2 6 6 3 3 0 nan nan nan nan nan nan nan nan nan nan nan nan nan nan nan nan nan nan nan nan nan nan nan nan nan nan nan nan nan nan nan nan nan nan nan nan nan nan nan nan nan nan nan 0 4 4 5 5 10 12 12 13 13 14 14 14 15 15 15 16 20 20 25 10 0 0 1
4 3 0 1 1 1 1 1 1 1 2 1 1 1 1 2 5 5 1 nan nan nan nan nan nan nan 1 0 nan nan nan nan 0 0 3 nan nan nan nan nan nan nan nan nan nan nan nan nan nan nan nan nan nan nan nan nan nan nan nan nan nan nan nan nan nan nan 0 1 2 2 7 9 10 10 11 12 13 13 15 21 21 29 28 1 1 1
2 5 3 2 2 1 1 1 1 1 1 1 2 2 2 2 1 1 2 nan nan nan nan nan nan nan nan nan nan nan nan nan 0 0 3 nan nan nan nan nan nan nan nan nan nan nan nan nan nan nan nan nan nan nan nan nan nan nan nan nan nan nan nan nan nan nan nan nan nan nan nan nan 5 5 6 8 9 9 15 23 23 31 37 20 20 7
2 3 2 1 1 1 1 2 1 1 0 0 0 0 1 1 0 0 nan nan nan nan nan nan nan nan nan nan nan nan nan nan nan nan 4 nan nan nan nan nan nan nan nan nan nan nan nan nan nan 0 nan nan nan nan nan nan nan nan nan nan nan nan nan nan nan nan nan nan nan nan nan nan nan nan nan 4 9 9 17 25 25 30 38 46 46 33
3 3 2 1 1 2 1 2 1 1 0 nan nan nan 0 nan nan nan nan nan nan 0 1 0 0 nan nan nan nan nan nan nan nan nan 6 nan nan nan nan nan nan nan nan nan nan nan nan nan nan nan 0 nan nan nan nan nan nan nan nan nan nan nan nan nan nan nan nan nan nan nan nan nan nan nan nan 7 13 13 18 23 23 27 33 44 44 47
3 2 3 2 2 1 3 1 0 0 nan nan nan nan nan nan nan nan nan nan nan nan 1 4 4 2 5 nan nan nan nan nan nan nan nan nan nan nan nan nan nan nan nan nan nan nan nan nan nan nan nan nan nan nan nan nan nan nan nan nan nan nan nan nan nan nan nan nan nan nan nan nan nan nan nan 7 7 7 13 20 20 20 29 37 37 46
2 2 2 1 1 1 1 1 1 1 0 nan nan nan nan nan nan nan nan nan nan nan nan nan nan nan 8 12 1 1 nan nan nan nan nan nan nan nan nan nan nan nan nan nan nan nan nan nan nan nan nan nan nan nan nan nan nan nan nan nan nan nan nan nan nan nan nan nan nan nan nan nan nan nan nan nan nan nan nan nan nan 5 17 24 24 37
2 2 2 2 2 1 0 1 1 1 nan nan nan nan nan nan nan nan nan nan nan nan nan nan nan nan nan nan 4 4 5 nan nan nan nan nan nan nan nan nan nan nan nan nan nan nan nan nan nan nan nan nan nan nan nan nan nan nan nan nan nan nan nan nan nan nan nan nan nan nan nan nan nan nan nan nan nan nan nan nan nan nan 1 0 0 15
2 2 2 2 2 0 nan 0 nan nan nan nan 1 1 nan nan nan nan nan nan nan nan nan nan nan 0 0 1 1 1 1 nan nan nan nan nan nan nan nan nan nan nan nan nan nan nan nan nan nan nan nan nan nan nan nan nan nan nan 1 nan nan nan nan nan nan nan nan nan nan nan nan nan nan nan nan nan nan nan nan nan nan nan 1 nan nan nan
4 4 3 2 2 1 0 nan nan nan 0 nan nan nan nan nan nan nan nan nan nan nan nan nan nan nan nan nan nan nan nan nan nan nan nan nan nan nan nan nan nan nan nan nan nan nan nan nan nan nan nan nan nan nan nan nan nan 3 7 nan nan nan nan nan nan nan nan nan nan nan nan nan nan nan nan nan nan nan nan nan nan nan 0 nan nan nan
8 6 2 0 0 nan nan nan 1 1 0 nan nan nan nan nan nan nan nan nan nan nan nan nan nan nan nan nan nan nan nan nan nan nan nan nan nan nan nan nan nan nan nan nan nan nan nan nan nan nan nan nan nan nan nan nan nan nan 1 nan nan nan 0 nan nan nan nan nan nan nan 1 nan nan nan nan nan nan nan nan nan nan 5 6 nan nan nan
5 3 0 nan nan nan 0 1 0 0 nan nan nan nan nan nan nan nan nan nan nan nan nan nan nan 0 nan nan nan nan nan nan nan nan nan nan nan nan nan nan nan nan nan nan nan nan nan nan nan nan nan nan nan nan nan nan nan nan nan nan nan nan nan nan nan nan nan nan nan nan nan nan nan nan nan nan nan nan nan 4 4 15 10 nan nan nan
4 1 nan nan nan 0 0 1 nan nan nan nan nan nan nan nan nan nan 0 nan nan nan nan nan nan nan 0 0 nan nan nan nan nan nan nan nan nan nan nan nan nan nan nan nan nan nan nan nan nan nan nan nan nan nan nan nan nan nan nan nan nan nan nan nan nan nan nan nan nan nan nan nan nan nan nan nan nan nan nan nan nan nan nan nan nan nan
nan nan 0 1 1 0 0 nan nan nan nan nan nan nan nan nan 0 0 nan nan nan nan nan nan nan nan 0 nan nan nan nan nan nan nan nan nan 7 7 1 nan nan nan nan nan nan nan nan nan nan nan nan nan nan nan nan nan nan nan nan nan nan nan nan nan nan nan nan nan nan nan nan nan nan nan nan nan nan nan nan nan nan nan nan nan nan nan
nan 0 0 0 0 nan 0 nan nan nan nan nan nan nan nan nan nan nan nan nan nan nan nan nan nan nan nan nan nan nan nan nan nan nan nan nan nan nan nan nan nan nan nan nan nan nan nan nan nan nan nan nan nan nan nan nan nan nan nan nan nan nan nan nan nan nan nan nan nan nan nan nan nan nan nan nan nan nan nan nan nan nan nan nan nan nan
0 nan nan nan nan nan nan nan nan nan nan nan nan nan nan nan nan nan nan nan nan nan nan nan nan nan nan nan nan nan nan nan nan nan nan nan nan nan nan nan nan 0 nan nan nan nan nan nan nan nan nan nan nan nan nan nan nan nan nan nan nan nan nan nan nan nan nan nan nan nan nan nan nan nan nan nan nan nan nan nan nan nan nan nan nan nan
0 1 0 nan nan nan nan nan nan nan nan nan nan nan nan nan nan nan nan nan nan nan 1 nan nan nan nan nan nan nan nan nan nan nan nan nan nan nan nan nan nan 0 1 0 0 0 nan nan nan nan nan nan nan nan nan nan nan nan nan nan nan nan nan nan nan nan nan nan nan nan nan nan nan nan nan nan nan nan nan nan nan nan nan nan nan nan
nan nan nan nan nan nan nan nan nan nan nan nan nan nan nan nan 8 8 nan nan nan nan nan nan nan nan nan nan nan nan 0 nan nan nan nan nan nan nan nan 0 0 0 nan nan nan nan nan nan nan nan nan nan nan nan nan nan nan nan nan nan nan nan nan nan nan nan nan nan nan nan nan nan nan nan nan nan nan nan nan nan nan nan nan nan nan nan
nan nan nan nan nan nan nan nan nan nan nan nan nan nan nan nan nan nan nan nan nan nan nan nan nan nan nan nan nan nan nan nan nan nan nan nan nan nan 0 0 0 0 nan nan nan nan nan nan nan nan 1 nan nan nan nan nan nan nan nan nan nan nan nan nan nan nan nan nan nan nan nan nan nan nan nan nan nan nan nan nan nan nan nan nan nan nan
0 nan nan nan nan nan nan nan nan nan nan nan nan nan nan nan nan nan nan nan nan nan nan nan nan nan nan nan nan nan nan nan nan nan nan nan nan nan 0 nan nan nan nan nan nan nan nan nan nan nan 2 12 2 2 nan nan nan nan nan nan nan nan nan nan nan nan nan nan nan nan nan nan nan nan nan nan nan nan nan nan nan nan nan nan nan nan
CIN
nan nan nan nan nan nan nan nan nan nan nan nan nan nan nan nan -24 -24 -6 -2 -2 -3 -4 -17 -17 -17 -5 -0 -0 -0 -0 -0 -0 -0 -0 -0 -0 -0 -0 -0 -0 -0 -0 -0 -0 -0 -0 -0 -0 -0 -0 -0 -0 -0 -0 -0 -0 -0 -0 -0 -0 -0 -0 -0 -0 -0 -0 -0 -0 -0 -0 -0 -0 -0 -0 -0 -0 -0 -0 -0 -0 -0 -0 -0 -0 -0
nan nan nan nan nan nan nan nan nan nan nan nan nan nan nan nan -11 -11 -5 -1 -1 -4 -7 -11 -11 -8 -13 -0 -0 -0 -0 -0 -0 -0 -0 -0 -0 -0 -0 -0 -0 -0 -0 -0 -0 -0 -0 -0 -0 -0 -0 -0 -0 -0 -0 -0 -0 -0 -0 -0 -0 -0 -0 -0 -0 -0 -0 -0 -0 -0 -0 -0 -0 -0 -0 -0 -0 -0 -0 -0 -0 -0 -0 -0 -0 -0
nan nan nan nan nan nan nan nan nan nan nan nan nan nan -0 nan -2 -2 -4 -0 -0 -0 -1 -7 -7 -8 -12 -7 -0 -0 -0 -0 -0 -0 -0 -0 -0 -0 -0 -0 -0 -0 -0 -0 -0 -0 -0 -0 -0 -0 -0 -0 -0 -0 -0 -0 -0 -0 -0 -0 -0 -0 -0 -0 -0 -0 -0 -0 -0 -0 -0 -0 -0 -0 -0 -0 -0 -0 -0 -0 -0 -0 -0 -0 -0 -0
nan nan nan nan nan nan nan nan nan nan nan nan -0 -0 -1 -0 -0 -0 -8 -3 -3 -2 -1 -1 -1 -0 -15 -7 -0 -0 -0 -0 -0 -0 -0 -0 -0 -0 -0 -0 -0 -0 -0 -0 -0 -0 -0 -0 -0 -0 -0 -0 -0 -0 -0 -0 -0 -0 -0 -0 -0 -0 -0 -0 -0 -0 -0 -0 -0 -0 -0 -0 -0 -0 -0 -0 -0 -0 -0 -0 -0 -0 -0 -0 -0 -0
nan nan nan nan nan nan nan nan nan nan nan -10 -4 -4 -4 -4 -11 -11 -14 -8 -8 -0 -2 -0 -0 -0 -13 -34 -8 -8 -0 -0 -0 -0 -0 -0 -0 -0 -0 -0 -0 -0 -0 -0 -0 -0 -0 -0 -0 -0 -0 -0 -0 -0 -0 -0 -0 -0 -0 -0 -0 -0 -0 -0 -0 -0 -0 -0 -0 -0 -0 -0 -0 -0 -0 -0 -0 -0 -0 -0 -0 -0 -0 -0 -0 -0
nan -0 -0 -0 -0 nan nan nan -2 -2 -5 -10 -5 -5 -5 -11 -14 -14 -14 -13 -13 -10 -9 -3 -3 -0 nan nan -0 -0 -0 -0 -0 -0 -0 -0 -0 -0 -0 -0 -0 -0 -0 -0 -0 -0 -0 -0 -0 -0 -0 -0 -0 -0 -0 -0 -0 -0 -0 -0 -0 -0 -0 -0 -0 -0 -0 -0 -0 -0 -0 -0 -0 -0 -0 -0 -0 -0 -0 -0 -0 -0 -0 -0 -0 -0
-0 -0 -4 -1 -1 nan -3 -4 -0 -0 -12 -5 -5 -5 -11 -11 -10 -10 -12 -10 -10 -12 -14 -7 -7 -6 nan -5 -0 -0 -0 -0 -0 -0 -0 -0 -0 -0 -0 -0 -0 -0 -0 -0 -0 -0 -0 -0 -0 -0 -0 -0 -0 -0 -0 -0 -0 -0 -0 -0 -0 -0 -0 -0 -0 -0 -0 -0 -0 -0 -0 -0 -0 -0 -0 -0 -0 -0 -0 -0 -0 -0 -0 -0 -0 -0
-4 -3 -0 -5 -5 -5 -5 -7 -0 -0 -14 -6 -2 -2 -3 -9 -22 -22 -51 -62 -62 -42 nan nan nan nan nan nan nan nan nan nan nan nan -0 -0 -0 -0 -0 -0 -0 -0 -0 -0 -0 -0 -0 -0 -0 -0 -0 -0 -0 -0 -0 -0 -0 -0 -0 -0 -0 -0 -0 -0 -0 -0 -0 -0 -0 -0 -0 -0 -0 -0 -0 -0 -0 -0 -0 -0 -0 -0 -0 -0 -0 -0
-11 -4 -0 -4 -4 -3 -6 -5 -4 -4 -15 -1 -5 -5 -11 -12 -12 -12 -30 -42 -42 -50 nan nan nan nan nan nan nan nan nan -0 nan nan -0 -2 -8 -8 -0 -0 -0 -0 -0 -0 -0 -0 -0 -0 -0 -0 -0 -0 -0 -0 -0 -0 -0 -0 -0 -0 -0 -0 -0 -0 -0 -0 -0 -0 -0 -0 -0 -0 -0 -0 -0 -0 -0 -0 -0 -0 -0 -0 -0 -0 -0 -0
-16 -8 -0 -11 -11 -25 -18 -1 -1 -1 -14 -19 -29 -29 -32 nan nan nan -9 nan nan nan nan nan nan nan nan nan nan nan nan -0 -0 -0 -0 -0 -0 -0 -0 -0 -0 -0 -0 -0 -0 -0 -0 -0 -0 -0 -0 -0 -0 -0 -0 -0 -0 -0 -0 -0 -0 -0 -0 -0 -0 -0 -0 -0 -0 -0 -0 -0 -0 -0 -0 -0 -0 -0 -0 -0 -0 -0 -0 -0 -0 -0
-6 -10 -14 -14 -14 -21 -13 -4 -7 -7 -26 -36 -24 -24 -10 -22 nan nan -3 -2 -2 -10 nan nan nan nan nan nan nan nan nan nan -14 -14 -0 -0 -0 -0 -0 -0 -0 -0 -0 -0 -0 -0 -0 -0 -0 -0 -0 -0 -0 -0 -0 -0 -0 -0 -0 -0 -0 -0 -0 -0 -0 -0 -0 -0 -0 -0 -0 -0 -0 -0 -0 -0 -0 -0 -0 -0 -0 -0 -0 -0 -0 -0
-5 -10 -12 -5 -5 -3 -4 -11 -21 -21 -27 nan nan nan -0 -28 -44 -44 -10 -0 -0 -3 nan nan nan nan nan nan -3 -3 nan nan nan nan nan -24 -13 -13 -2 -9 -9 -0 -0 -0 -0 -0 -0 -0 -0 -0 -0 -0 -0 -0 -0 -0 -0 -0 -0 -0 -0 -0 -0 -0 -0 -0 -0 -0 -0 -0 -0 -0 -0 -0 -0 -0 -0 -0 -0 -0 -0 -0 -0 -0 -0 -0
-11 -12 -7 -3 -3 -6 -11 -7 -8 -8 nan -7 -4 -4 -3 nan -26 -26 -31 -8 -8 -0 nan nan nan -17 -26 nan nan nan -8 nan nan nan nan nan nan nan nan nan nan nan nan nan nan nan -0 -0 -0 -0 -0 -0 -0 -0 -0 -0 -0 -0 -0 -0 -0 -0 -0 -0 -0 -0 -0 -0 -0 -0 -0 -0 -0 -0 -0 -0 -0 -0 -0 -0 -0 -0 -0 -0 -0 -0
-10 -9 -7 -3 -3 -8 -14 -8 -7 -7 -3 -6 -7 -7 -6 -10 -13 -13 -13 -4 -4 -9 -11 -11 -11 -11 -9 -12 -12 -12 -13 nan nan nan nan nan nan nan nan nan nan nan nan nan nan nan -0 -0 -0 -0 -0 -0 -0 -0 -0 -0 -0 -0 -0 -0 -0 -0 -0 -0 -0 -0 -0 -0 -0 -0 -0 -0 -0 -0 -0 -0 -0 -0 -0 -0 -0 -0 -0 -0 -0 -0
-4 -2 -8 -10 -10 -10 -8 -4 -5 -5 -6 -6 -11 -11 -13 -12 -8 -8 -3 -5 -5 nan -16 -15 -15 -10 -5 -15 -22 -22 nan nan nan nan nan nan nan nan nan nan nan nan nan nan nan nan -2 -7 -7 nan nan -3 -0 -0 -0 -0 -0 -0 -0 -0 -0 -0 -0 -0 -0 -0 -0 -0 -0 -0 -0 -0 -0 -0 -0 -0 -0 -0 -0 -0 -0 -0 -0 -0 -0 -0
-6 -7 -8 -9 -9 -10 -0 -0 -8 -8 -7 -8 -18 -18 -20 -8 -6 -6 -7 -10 -10 -10 -14 -11 -11 -8 -8 -22 nan nan nan nan nan nan nan nan nan nan nan nan nan nan nan nan nan nan nan nan nan nan nan -0 -0 -0 -0 -0 -0 -0 -0 -0 -0 -0 -0 -0 -0 -0 -0 -0 -0 -0 -0 -0 -0 -0 -0 -0 -0 -0 -0 -0 -0 -0 -0 -0 -0 -0
-8 -9 -12 -8 -8 -8 -2 -7 -11 -11 -6 nan -10 -10 -9 -10 -12 -12 -12 -8 -8 -12 -11 -7 -7 -6 -9 nan nan nan nan nan nan nan nan nan nan nan nan nan nan nan nan nan nan nan nan nan nan nan nan -0 -0 -0 -0 -0 -0 -0 -0 -0 -0 -0 -0 -0 -0 -0 -0 -0 -0 -0 -0 -0 -0 -0 -0 -0 -0 -0 -0 -0 -0 -0 -0 -0 -0 -0
-8 -9 -10 -9 -9 -6 -3 nan nan nan -11 -4 -7 -7 -11 -11 -12 -12 -11 -8 -8 nan -6 -6 -6 -11 nan nan nan nan nan nan nan nan nan nan nan nan nan nan nan nan nan nan nan nan nan nan nan nan nan -0 -0 -0 -0 -0 -0 -0 -0 -0 -0 -0 -0 -0 -0 -0 -0 -0 -0 -0 -0 -0 -0 -0 -0 -0 -0 -0 -0 -0 -0 -0 -0 -0 -0 -0
-8 -11 -11 -8 -8 -6 -6 nan -3 -3 nan -7 -10 -10 -13 -6 -8 -8 -8 -9 -9 -6 -3 -5 -5 -11 nan nan nan nan nan nan nan nan -9 nan nan nan nan nan nan nan nan nan nan nan nan nan nan -15 -0 -0 -0 -0 -0 -0 -0 -0 -0 -0 -0 -0 -0 -0 -0 -0 -0 -0 -0 -0 -0 -0 -0 -0 -0 -0 -0 -0 -0 -0 -0 -0 -0 -0 -0 -0
-3 -7 -6 -8 -8 -10 -13 -10 -1 -1 -2 -10 -13 -13 -10 -5 -6 -6 nan -8 -8 -4 -7 nan nan nan nan nan nan nan nan nan nan nan -9 nan nan nan nan nan nan nan nan nan nan nan nan nan nan nan -0 -0 -0 -0 -0 -0 -0 -0 -0 -0 -0 -0 -0 -0 -0 -0 -0 -0 -0 -0 -0 -0 -0 -0 -0 -0 -0 -0 -0 -0 -0 -0 -0 -0 -0 -0
-4 -6 -7 -11 -11 -19 -12 -10 -0 -0 -5 -16 -15 -15 -7 -5 -7 -7 -6 -3 -3 -4 nan nan nan nan nan nan nan nan nan -9 -10 -10 -8 -9 nan nan nan nan nan nan nan nan nan nan nan nan nan nan -3 -0 -0 -0 -0 -0 -0 -0 -0 -0 -0 -0 -0 -0 -0 -0 -0 -0 -0 -0 -0 -0 -0 -0 -0 -0 -0 -0 -0 -0 -0 -0 -0 -0 -0 -0
-8 -11 -11 -18 -18 -14 -2 -10 -6 -6 -12 -27 -10 -10 -5 nan -2 -2 -4 nan nan nan nan nan nan nan -9 nan nan nan nan -12 nan nan -9 nan nan nan nan nan nan nan nan nan nan nan nan nan nan nan -2 -0 -0 -0 -0 -0 -0 -0 -0 -0 -0 -0 -0 -0 -0 -0 -0 -0 -0 -0 -0 -0 -0 -0 -0 -0 -0 -0 -0 -0 -0 -0 -0 -0 -0 -0
-9 -7 -12 -12 -12 -9 -13 -26 -24 -24 -15 -21 -6 -6 nan -13 -9 -9 nan nan nan nan nan -9 -9 -8 -8 -8 -9 -9 -10 -16 -20 -20 nan nan nan nan nan nan nan nan nan nan nan nan nan nan nan nan -0 -0 -0 -0 -0 -0 -0 -0 -0 -0 -0 -0 -0 -0 -0 -0 -0 -0 -0 -0 -0 -0 -0 -0 -0 -0 -0 -0 -0 -0 -0 -0 -0 -0 -0 -0
-8 -11 -16 -18 -18 -43 -42 -26 -28 -28 -20 -13 -12 -12 -16 -15 nan nan nan nan nan nan -7 -7 -7 -8 -13 -9 -11 -11 nan nan nan nan nan nan nan nan nan nan nan nan nan nan nan nan nan nan nan nan nan -0 -0 -0 -0 -0 -0 -0 -0 -0 -0 -0 -0 -0 -0 -0 -0 -0 -0 -0 -0 -0 -0 -0 -0 -0 -0 -0 -0 -0 -0 -0 -0 -0 -0 -0
-8 -13 -17 -25 -25 -40 -24 -15 -8 -8 -9 -8 -10 -10 -12 nan -3 -3 -11 -11 -11 -8 -5 -5 -5 -5 -10 -0 nan nan nan nan nan nan nan nan nan nan nan nan nan nan nan nan nan nan nan nan nan nan nan -0 -0 -0 -0 -0 -0 -0 -0 -0 -0 -0 -0 -0 -0 -0 -0 -0 -0 -0 -0 -0 -0 -0 -0 -0 -0 -0 -0 -0 -0 -0 -0 -0 -0 -0
-0 -5 -10 -2 -2 -0 -0 -0 -0 -0 -0 -5 -13 -13 -11 -5 -6 -6 -5 -3 -3 -3 -4 -7 -7 -4 -5 nan nan nan nan nan nan nan nan nan nan nan nan nan nan nan nan nan nan nan nan nan nan nan nan nan -0 -0 -0 -0 -0 -0 -0 -0 -0 -0 -0 -0 -0 -0 -0 -0 -0 -0 -0 -0 -0 -0 -0 -0 -0 -0 -0 -0 -0 -0 -0 -0 -0 -0
-0 -0 -0 -0 -0 -0 -0 -0 -0 -0 -0 -0 -2 -2 -10 -11 -5 -5 -3 -2 -2 -3 -5 -4 -4 -5 -5 -6 nan nan nan nan nan nan nan nan nan nan nan nan nan nan nan nan nan nan nan nan nan nan nan nan nan nan -0 -0 -0 -0 -0 -0 -0 -0 -0 -0 -0 -0 -0 -0 -0 -0 -0 -0 -0 -0 -0 -0 -0 -0 -0 -0 -0 -0 -0 -0 -0 -0
-0 -0 -0 -0 -0 -0 -0 -0 -0 -0 -0 -0 -0 -0 -0 -7 -2 -2 -1 -2 -2 -4 -6 nan nan nan -3 -7 nan nan nan nan nan nan nan nan nan nan nan nan nan nan nan nan nan nan -0 -6 -6 nan nan nan nan nan -0 -0 -0 -0 -0 -0 -0 -0 -0 -0 -0 -0 -0 -0 -0 -0 -0 -0 -0 -0 -0 -0 -0 -0 -0 -0 -0 -0 -0 -0 -0 -19
-0 -0 -0 -0 -0 -0 -0 -0 -0 -0 -0 -0 -0 -0 -0 -8 -2 -2 -1 -3 -3 -5 -4 -1 -1 -2 nan nan nan nan nan nan nan nan nan nan nan nan nan nan nan nan nan nan nan nan -11 nan nan nan nan nan nan nan nan -0 -0 -0 -0 -0 -0 -0 -0 -0 -0 -0 -0 -0 -0 -0 -0 -0 -0 -0 -0 -0 -0 -0 -0 -0 -0 -0 -0 -9 -9 -23
-0 -0 -0 -0 -0 -0 -0 -0 -0 -0 -0 -0 -0 -0 -0 -7 -4 -4 -4 -6 -6 -5 nan -1 -1 -2 -5 -7 nan nan nan nan nan nan nan nan nan nan nan nan nan nan nan nan nan nan nan nan nan nan nan nan nan nan nan nan nan nan -0 -0 -0 -0 -0 -0 -0 -0 -0 -0 -0 -0 -0 -0 -0 -0 -0 -0 -0 -0 -0 -0 -0 -0 -12 -23 -23 -21
-1 -0 -1 -0 -0 -0 -2 -14 -0 -0 -0 -0 -0 -0 -0 -8 -7 -7 -10 nan nan nan nan -2 -2 -3 nan nan nan nan nan nan nan nan nan nan nan nan nan nan nan nan nan nan nan nan nan nan nan nan nan nan nan nan nan nan nan nan nan nan nan -2 -0 -0 -0 -0 -0 -0 -0 -0 -0 -0 -0 -0 -0 -0 -0 -0 -0 -0 -0 -0 -19 -22 -22 -17
-1 -2 nan nan nan -12 -11 -12 -14 -14 -13 -11 -7 -7 -0 -0 -4 -4 -13 nan nan nan nan nan nan nan nan nan nan nan nan nan nan nan nan nan nan nan nan nan nan nan nan nan nan nan nan nan nan nan nan nan nan nan nan nan nan nan nan nan nan nan -0 -0 -0 -0 -0 -0 -0 -0 -0 -0 -0 -0 -0 -0 -0 -0 -0 -0 -0 -0 -9 -15 -15 -8
-0 -0 -3 -3 -3 -8 -9 -12 -11 -11 -8 -12 -6 -6 -8 -2 -0 -0 -7 nan nan nan nan nan nan nan -1 -1 nan nan nan nan -0 -0 -0 nan nan nan nan nan nan nan nan nan nan nan nan nan nan nan nan nan nan nan nan nan nan nan nan nan nan nan nan nan nan nan -6 -0 -0 -0 -0 -0 -0 -0 -0 -0 -0 -0 -0 -0 -0 -0 -0 -16 -16 -9
-2 -0 -0 -3 -3 -9 -11 -13 -10 -10 -10 -7 -0 -0 -3 -4 -4 -4 -4 nan nan nan nan nan nan nan nan nan nan nan nan nan -0 -0 -0 nan nan nan nan nan nan nan nan nan nan nan nan nan nan nan nan nan nan nan nan nan nan nan nan nan nan nan nan nan nan nan nan nan nan nan nan nan -0 -0 -0 -0 -0 -0 -0 -0 -0 -0 -0 -5 -5 -8
-2 -0 -2 -6 -6 -6 -5 -5 -6 -6 -6 -8 -6 -6 -3 -6 -11 -11 nan nan nan nan nan nan nan nan nan nan nan nan nan nan nan nan -0 nan nan nan nan nan nan nan nan nan nan nan nan nan nan -3 nan nan nan nan nan nan nan nan nan nan nan nan nan nan nan nan nan nan nan nan nan nan nan nan nan -0 -0 -0 -0 -0 -0 -0 -0 -0 -0 -0
-0 -0 -1 -6 -6 -2 -2 -0 -0 -0 -0 nan nan nan -5 nan nan nan nan nan nan -6 -4 -11 -11 nan nan nan nan nan nan nan nan nan -0 nan nan nan nan nan nan nan nan nan nan nan nan nan nan nan -0 nan nan nan nan nan nan nan nan nan nan nan nan nan nan nan nan nan nan nan nan nan nan nan nan -0 -0 -0 -0 -0 -0 -0 -0 -0 -0 -0
-1 -1 -0 -3 -3 -5 -0 -0 -0 -0 nan nan nan nan nan nan nan nan nan nan nan nan -8 -2 -2 -6 -5 nan nan nan nan nan nan nan nan nan nan nan nan nan nan nan nan nan nan nan nan nan nan nan nan nan nan nan nan nan nan nan nan nan nan nan nan nan nan nan nan nan nan nan nan nan nan nan nan -0 -0 -0 -0 -0 -0 -0 -0 -0 -0 -0
-1 -0 -0 -2 -2 -2 -0 -0 -0 -0 -0 nan nan nan nan nan nan nan nan nan nan nan nan nan nan nan -5 -3 -23 -23 nan nan nan nan nan nan nan nan nan nan nan nan nan nan nan nan nan nan nan nan nan nan nan nan nan nan nan nan nan nan nan nan nan nan nan nan nan nan nan nan nan nan nan nan nan nan nan nan nan nan nan -0 -0 -0 -0 -0
-3 -2 -1 -0 -0 -3 -1 -0 -0 -0 nan nan nan nan nan nan nan nan nan nan nan nan nan nan nan nan nan nan -16 -16 -13 nan nan nan nan nan nan nan nan nan nan nan nan nan nan nan nan nan nan nan nan nan nan nan nan nan nan nan nan nan nan nan nan nan nan nan nan nan nan nan nan nan nan nan nan nan nan nan nan nan nan nan -8 -9 -9 -0
-2 -3 -1 -0 -0 -4 nan -0 nan nan nan nan -4 -4 nan nan nan nan nan nan nan nan nan nan nan -17 -20 -14 -12 -12 -17 nan nan nan nan nan nan nan nan nan nan nan nan nan nan nan nan nan nan nan nan nan nan nan nan nan nan nan -5 nan nan nan nan nan nan nan nan nan nan nan nan nan nan nan nan nan nan nan nan nan nan nan -9 nan nan nan
-1 -0 -1 -0 -0 -0 -0 nan nan nan -5 nan nan nan nan nan nan nan nan nan nan nan nan nan nan nan nan nan nan nan nan nan nan nan nan nan nan nan nan nan nan nan nan nan nan nan nan nan nan nan nan nan nan nan nan nan nan -2 -0 nan nan nan nan nan nan nan nan nan nan nan nan nan nan nan nan nan nan nan nan nan nan nan -9 nan nan nan
-0 -0 -0 -0 -0 nan nan nan -0 -0 -3 nan nan nan nan nan nan nan nan nan nan nan nan nan nan nan nan nan nan nan nan nan nan nan nan nan nan nan nan nan nan nan nan nan nan nan nan nan nan nan nan nan nan nan nan nan nan nan -3 nan nan nan -8 nan nan nan nan nan nan nan -6 nan nan nan nan nan nan nan nan nan nan -5 -4 nan nan nan
-0 -0 -2 nan nan nan -0 -0 -2 -2 nan nan nan nan nan nan nan nan nan nan nan nan nan nan nan -5 nan nan nan nan nan nan nan nan nan nan nan nan nan nan nan nan nan nan nan nan nan nan nan nan nan nan nan nan nan nan nan nan nan nan nan nan nan nan nan nan nan nan nan nan nan nan nan nan nan nan nan nan nan -9 -9 -1 -3 nan nan nan
-0 -1 nan nan nan -3 -2 -2 nan nan nan nan nan nan nan nan nan nan -5 nan nan nan nan nan nan nan -3 -4 nan nan nan nan nan nan nan nan nan nan nan nan nan nan nan nan nan nan nan nan nan nan nan nan nan nan nan nan nan nan nan nan nan nan nan nan nan nan nan nan nan nan nan nan nan nan nan nan nan nan nan nan nan nan nan nan nan nan
nan nan -3 -0 -0 -3 -3 nan nan nan nan nan nan nan nan nan -2 -2 nan nan nan nan nan nan nan nan -3 nan nan nan nan nan nan nan nan nan -9 -9 -28 nan nan nan nan nan nan nan nan nan nan nan nan nan nan nan nan nan nan nan nan nan nan nan nan nan nan nan nan nan nan nan nan nan nan nan nan nan nan nan nan nan nan nan nan nan nan nan
nan -3 -2 -2 -2 nan -1 nan nan nan nan nan nan nan nan nan nan nan nan nan nan nan nan nan nan nan nan nan nan nan nan nan nan nan nan nan nan nan nan nan nan nan nan nan nan nan nan nan nan nan nan nan nan nan nan nan nan nan nan nan nan nan nan nan nan nan nan nan nan nan nan nan nan nan nan nan nan nan nan nan nan nan nan nan nan nan
-3 nan nan nan nan nan nan nan nan nan nan nan nan nan nan nan nan nan nan nan nan nan nan nan nan nan nan nan nan nan nan nan nan nan nan nan nan nan nan nan nan -25 nan nan nan nan nan nan nan nan nan nan nan nan nan nan nan nan nan nan nan nan nan nan nan nan nan nan nan nan nan nan nan nan nan nan nan nan nan nan nan nan nan nan nan nan
-2 -1 -2 nan nan nan nan nan nan nan nan nan nan nan nan nan nan nan nan nan nan nan -1 nan nan nan nan nan nan nan nan nan nan nan nan nan nan nan nan nan nan -21 -18 -16 -16 -14 nan nan nan nan nan nan nan nan nan nan nan nan nan nan nan nan nan nan nan nan nan nan nan nan nan nan nan nan nan nan nan nan nan nan nan nan nan nan nan nan
nan nan nan nan nan nan nan nan nan nan nan nan nan nan nan nan -0 -0 nan nan nan nan nan nan nan nan nan nan nan nan -2 nan nan nan nan nan nan nan nan -25 -25 -20 nan nan nan nan nan nan nan nan nan nan nan nan nan nan nan nan nan nan nan nan nan nan nan nan nan nan nan nan nan nan nan nan nan nan nan nan nan nan nan nan nan nan nan nan
nan nan nan nan nan nan nan nan nan nan nan nan nan nan nan nan nan nan nan nan nan nan nan nan nan nan nan nan nan nan nan nan nan nan nan nan nan nan -17 -19 -19 -14 nan nan nan nan nan nan nan nan -18 nan nan nan nan nan nan nan nan nan nan nan nan nan nan nan nan nan nan nan nan nan nan nan nan nan nan nan nan nan nan nan nan nan nan nan
-1 nan nan nan nan nan nan nan nan nan nan nan nan nan nan nan nan nan nan nan nan nan nan nan nan nan nan nan nan nan nan nan nan nan nan nan nan nan -13 nan nan nan nan nan nan nan nan nan nan nan -14 -3 -19 -19 nan nan nan nan nan nan nan nan nan nan nan nan nan nan nan nan nan nan nan nan nan nan nan nan nan nan nan nan nan nan nan nan
Wind_Speed
7 7 8 9 10 10 9 10 11 12 11 10 10 10 10 11 11 12 14 14 14 13 12 12 13 14 16 20 22 24 26 27 27 27 27 27 27 27 27 27 27 27 28 28 28 28 28 29 29 29 29 29 29 29 29 29 29 29 29 29 29 29 29 30 30 30 30 30 30 30 29 29 29 29 29 29 28 28 28 29 29 29 29 29 29 29
7 7 7 9 10 10 9 10 11 11 12 11 11 11 11 12 11 11 11 12 13 12 12 12 13 14 16 18 21 24 25 26 26 26 26 26 26 27 27 27 28 28 28 28 28 29 29 29 29 29 29 29 29 29 29 29 29 29 29 29 29 29 29 29 29 30 30 30 30 29 29 29 29 29 29 29 29 29 29 29 29 29 29 29 29 29
8 7 7 8 9 10 9 10 11 11 12 12 12 12 14 14 12 10 9 10 10 11 11 12 13 14 16 16 19 22 23 25 25 25 26 26 26 27 27 28 28 28 28 29 29 29 29 29 29 28 28 29 29 29 29 29 29 29 29 29 29 29 29 29 29 29 29 29 29 29 29 29 29 29 29 29 29 29 30 30 30 30 30 30 30 30
8 8 7 7 8 9 9 10 10 11 11 12 13 14 15 13 11 9 9 9 10 10 11 13 14 14 13 13 15 19 22 23 24 25 26 26 27 27 28 28 28 28 29 29 29 29 28 28 28 28 28 28 29 29 29 29 29 29 29 29 29 29 29 29 29 29 29 29 29 29 29 29 29 29 29 29 29 29 29 29 29 29 30 30 30 30
7 8 8 7 7 8 9 10 10 10 10 11 11 12 12 10 9 9 9 10 11 11 11 12 13 13 12 11 13 16 21 23 25 26 26 27 27 28 28 28 28 28 28 28 28 28 28 28 28 28 28 28 29 29 29 29 29 29 29 29 29 29 29 29 29 29 29 29 29 29 29 28 28 28 28 29 29 29 29 29 29 29 29 30 30 30
7 7 7 7 7 7 8 8 9 9 10 9 9 10 9 9 9 9 9 10 10 10 10 10 11 12 12 11 13 17 20 23 25 26 26 27 27 27 28 28 28 28 28 28 28 28 28 28 28 28 28 28 28 29 29 29 29 29 29 29 29 29 29 29 29 29 29 29 29 28 28 28 28 28 28 28 28 28 29 29 29 29 29 30 30 30
7 7 7 7 7 7 7 8 8 9 8 8 8 7 8 8 9 10 10 10 10 10 10 10 10 10 11 12 14 17 19 21 23 24 25 26 26 26 27 27 28 28 28 28 28 28 28 28 28 28 28 28 28 28 28 28 29 29 29 29 29 29 29 29 29 29 28 28 28 28 28 28 28 28 27 28 28 28 28 29 29 29 29 29 30 30
8 8 7 8 8 7 7 7 7 8 8 7 7 7 7 8 8 9 10 10 10 9 9 9 9 9 10 11 13 14 15 16 17 18 20 21 22 23 25 26 27 27 28 28 28 28 28 28 28 28 28 28 28 28 28 28 28 28 28 28 28 28 28 28 28 28 28 28 28 28 27 27 27 27 27 27 27 28 28 28 28 29 29 29 30 30
9 9 9 8 8 8 8 7 6 7 7 7 7 7 8 9 9 9 8 9 9 8 9 9 9 9 9 10 11 12 13 14 14 14 16 16 17 19 21 23 24 26 26 27 27 27 27 27 27 28 28 28 28 28 28 28 28 28 28 28 28 28 28 28 28 28 28 28 27 27 27 27 27 27 27 27 27 27 27 28 28 28 29 29 29 30
9 10 9 8 7 7 7 7 7 6 7 7 7 7 8 10 10 10 9 8 8 8 8 8 9 10 10 10 10 11 13 14 16 18 19 18 19 20 21 21 21 22 24 25 26 26 27 27 27 27 27 27 27 27 27 27 27 27 27 27 27 27 27 27 27 27 27 27 27 27 27 27 27 27 27 27 27 27 27 28 28 28 29 29 29 30
9 9 8 8 6 5 5 6 6 7 7 8 8 8 8 9 9 10 11 10 9 8 8 8 9 9 10 9 10 11 11 12 13 15 17 19 20 22 21 21 21 21 23 24 24 25 25 26 26 27 27 27 27 27 27 26 26 26 26 26 26 26 26 26 26 26 27 27 27 27 27 27 27 27 27 27 27 27 27 28 28 28 28 29 29 30
8 7 6 6 5 5 5 6 6 7 8 8 9 9 8 8 8 8 10 10 10 9 9 8 8 9 9 10 10 10 10 10 11 11 11 12 14 15 15 15 16 17 19 20 21 22 23 25 25 25 25 25 25 25 25 25 25 25 25 25 25 25 26 26 26 26 26 27 27 27 27 27 27 27 28 28 28 28 28 28 28 28 28 29 29 29
7 6 5 5 6 6 6 7 7 7 8 8 9 9 9 8 7 7 8 9 10 10 9 9 9 9 9 9 9 9 9 10 10 10 9 9 9 10 10 10 11 11 12 13 14 15 19 21 22 23 23 23 24 24 24 24 24 25 25 25 25 25 25 26 26 26 27 27 27 27 28 28 28 28 28 28 28 28 28 28 28 28 28 29 29 29
7 5 5 6 6 7 7 8 9 9 8 8 8 9 8 8 8 8 8 9 9 9 9 10 10 9 9 8 8 9 9 9 10 10 9 9 9 9 9 10 10 10 10 11 11 12 15 16 17 17 20 21 21 22 22 23 23 24 25 25 25 26 26 26 27 27 27 28 28 28 28 28 28 28 28 28 28 28 29 29 28 28 29 29 29 29
6 6 7 7 7 7 8 8 9 9 9 8 8 8 8 8 8 8 8 9 9 9 9 10 10 9 8 7 7 8 8 9 9 10 10 9 9 9 9 10 11 11 10 11 11 12 14 13 13 13 14 17 18 19 21 22 23 25 25 26 26 27 27 27 28 28 28 28 28 28 28 28 28 28 28 28 29 29 29 29 29 29 29 29 29 29
6 7 8 8 8 8 8 8 8 9 9 8 8 8 8 8 8 8 8 9 9 9 9 9 9 9 6 5 6 7 8 9 9 10 11 10 9 9 9 10 11 11 11 11 11 11 11 11 11 12 13 16 19 22 24 24 25 26 26 27 27 28 28 28 28 28 28 28 28 28 28 28 28 29 29 29 29 29 29 29 29 29 29 29 29 29
7 7 8 8 9 8 8 8 8 8 8 8 8 8 8 8 8 8 8 8 8 8 8 8 8 7 6 5 6 6 8 8 9 9 11 11 10 9 9 10 11 12 11 11 11 10 10 10 10 10 11 16 20 24 25 26 26 27 27 28 28 28 28 28 28 28 28 28 28 28 29 29 29 29 29 29 29 29 29 29 29 29 30 30 30 30
7 7 8 8 8 8 8 8 8 8 8 8 8 8 7 8 8 8 8 8 8 8 8 7 7 6 6 6 6 6 8 9 9 10 10 11 10 10 9 10 11 11 11 11 11 10 10 10 10 11 13 19 23 25 26 27 27 27 28 28 28 28 28 28 28 28 29 29 29 29 29 29 29 29 29 29 29 29 29 29 29 30 30 30 30 30
8 8 8 8 8 8 8 8 8 8 8 8 7 7 8 8 8 8 9 8 8 8 8 8 7 7 7 8 9 9 9 9 9 10 10 11 11 10 9 10 10 11 11 11 11 10 10 10 12 15 19 23 25 26 27 27 27 27 28 28 28 28 28 29 29 29 29 29 29 29 29 29 29 29 29 29 29 29 29 29 29 30 30 30 30 30
9 8 8 8 8 8 8 8 8 8 8 8 8 8 9 9 9 10 9 8 8 7 7 7 8 8 9 10 10 11 10 9 9 9 10 11 11 10 9 10 10 11 11 10 10 10 10 10 11 14 19 22 24 25 26 27 27 28 28 28 29 29 29 29 29 29 29 29 29 29 29 28 28 28 28 28 28 28 29 29 29 29 29 30 30 30
9 9 8 8 8 8 8 8 8 9 9 9 9 9 9 9 10 9 8 7 7 7 7 8 8 9 9 10 11 11 10 10 9 9 8 9 9 9 8 9 10 11 11 11 10 9 10 10 10 11 14 20 23 25 27 28 28 29 29 29 29 29 29 29 29 29 29 28 28 28 28 28 28 28 28 28 28 28 28 28 29 29 29 29 30 30
9 9 9 10 9 9 9 9 10 10 10 9 9 9 9 9 8 8 7 7 7 8 9 9 9 10 10 11 11 11 11 9 9 8 6 8 9 9 8 8 9 10 11 11 10 10 10 10 10 11 15 20 24 26 28 28 29 29 29 29 29 29 29 28 28 28 28 28 28 28 28 27 27 28 28 28 28 28 28 29 29 29 29 29 30 30
10 10 10 10 10 9 9 9 9 9 10 9 9 9 7 7 7 7 7 7 8 9 9 10 10 10 10 11 11 11 10 9 8 7 6 8 9 9 8 8 9 10 11 10 10 10 10 10 10 12 15 21 25 27 28 28 29 29 29 29 28 28 28 28 27 27 27 27 27 27 27 28 28 28 28 28 28 29 29 29 29 29 29 30 30 30
10 10 9 9 8 8 7 8 9 9 8 8 8 7 6 6 7 8 8 8 9 9 9 9 10 10 10 10 10 10 9 8 7 6 5 7 8 9 8 8 9 10 11 10 10 10 11 11 11 11 13 19 23 26 27 28 28 28 28 28 28 27 27 27 27 27 27 27 27 28 28 28 28 28 28 28 29 29 29 29 29 29 30 30 30 30
10 10 9 9 10 11 12 12 12 12 10 9 8 8 8 9 9 9 9 9 9 8 8 9 9 9 9 9 9 9 8 7 7 6 5 6 8 9 8 8 9 10 11 10 10 10 11 11 11 11 11 15 20 24 26 27 27 27 27 27 27 27 27 27 27 27 27 28 28 28 28 28 28 29 29 29 29 29 29 29 30 30 30 30 30 30
13 14 15 17 19 21 23 23 21 20 18 15 12 10 9 9 9 9 8 8 8 8 8 9 9 9 8 8 8 8 7 7 7 6 6 6 7 8 8 8 9 10 11 10 9 10 11 12 12 12 11 13 16 20 23 25 25 26 25 26 26 26 27 27 27 28 28 28 28 28 28 28 28 28 28 29 29 29 29 29 30 30 30 30 30 29
21 22 24 25 25 25 24 24 23 23 23 21 18 14 11 9 8 8 8 8 7 7 8 8 9 9 8 8 8 7 8 7 7 6 7 7 7 8 7 7 8 9 11 10 10 10 12 12 12 12 11 11 12 15 20 22 23 24 25 25 26 27 27 27 28 28 28 28 28 28 28 28 28 28 28 28 28 29 29 29 30 30 30 29 26 24
23 23 23 23 22 22 21 21 21 21 22 22 21 20 15 10 8 8 8 7 7 7 8 8 9 8 8 8 8 8 9 8 7 7 7 6 6 7 7 8 8 9 10 10 10 10 12 11 11 11 11 10 11 12 16 19 21 23 24 25 26 27 27 27 27 27 27 27 27 27 27 27 27 28 28 28 28 29 29 29 30 29 28 23 18 14
19 20 19 19 19 19 19 19 19 19 20 20 20 18 13 9 7 8 8 7 7 7 8 8 8 8 8 8 9 9 9 8 7 7 6 6 6 6 7 8 8 8 8 9 9 9 9 9 8 8 9 11 11 11 12 15 17 19 20 22 24 25 25 26 26 26 26 26 27 27 27 27 27 27 28 28 28 28 29 30 29 26 21 17 13 11
13 14 14 14 15 15 15 14 15 16 17 18 18 16 12 8 7 7 7 7 7 7 8 9 8 8 8 8 8 9 8 7 6 6 6 5 5 6 7 8 8 8 7 7 8 8 7 7 6 7 9 10 11 10 10 11 12 13 14 17 19 20 22 23 24 25 25 26 26 26 27 27 27 27 27 27 28 28 29 30 28 22 15 12 11 11
11 11 10 11 11 11 11 10 11 12 13 14 14 13 10 8 7 7 7 7 7 7 8 8 8 8 8 7 7 7 7 6 6 6 6 5 5 6 8 8 8 8 7 6 6 7 8 7 6 6 8 9 10 10 10 10 10 10 10 11 13 15 19 21 22 23 23 24 25 25 26 26 26 27 27 27 28 28 28 29 27 21 13 11 11 11
10 9 9 9 9 9 8 8 8 8 9 9 9 9 9 8 7 7 7 6 6 7 7 8 8 8 8 7 7 7 7 7 7 8 7 5 5 6 7 8 8 8 7 6 7 7 8 8 7 7 8 9 9 10 10 10 10 10 10 10 11 12 16 18 19 19 19 21 22 23 24 25 26 26 26 27 27 28 28 29 26 21 14 12 12 12
10 9 8 9 8 8 8 7 7 7 7 7 7 7 8 8 8 8 7 7 6 6 7 8 8 9 9 9 9 9 8 8 9 10 9 6 5 5 6 8 9 9 8 8 8 8 7 8 8 9 9 9 9 9 10 10 10 10 10 10 10 11 14 14 14 14 15 16 18 19 21 23 24 24 25 26 26 27 27 28 27 24 18 14 12 12
9 9 9 9 8 8 8 8 8 7 7 7 7 7 7 7 8 8 8 7 6 6 7 7 8 8 9 9 9 10 10 10 11 11 10 7 6 6 7 8 9 9 9 8 8 8 8 9 10 10 9 9 9 8 9 9 10 10 9 9 10 10 11 11 11 11 12 13 13 14 15 16 18 20 22 23 24 24 26 27 27 27 25 19 15 13
9 9 9 8 8 8 8 8 8 7 7 7 7 8 8 8 7 7 7 7 7 7 7 7 8 8 9 9 9 10 11 11 11 12 11 8 7 6 7 8 9 9 9 8 8 8 7 10 11 11 10 10 10 9 8 8 9 9 9 9 10 10 10 10 10 11 11 11 11 11 11 11 12 14 16 18 21 23 25 27 28 29 29 26 22 18
8 9 8 8 8 8 8 8 8 8 8 7 7 7 8 8 8 8 8 8 8 9 9 9 9 9 9 9 10 11 12 11 12 12 12 10 8 7 7 7 8 9 9 9 9 8 8 10 11 12 12 11 10 9 8 8 8 9 10 10 10 10 10 10 10 10 10 11 11 11 11 11 11 12 13 18 21 24 26 27 28 29 29 29 27 24
8 8 8 8 7 8 8 8 8 8 8 7 7 8 8 8 8 9 9 9 9 9 10 10 11 11 11 11 11 11 12 12 12 13 13 11 10 8 8 8 9 10 9 9 9 9 9 10 11 11 11 11 10 9 8 9 9 10 10 10 10 10 11 10 10 10 10 11 11 11 11 11 12 12 13 18 20 22 24 25 26 26 27 27 27 27
8 8 8 7 7 7 8 8 8 8 8 8 8 8 9 9 10 10 10 10 11 11 11 10 10 11 14 15 14 14 14 14 15 15 15 12 11 9 9 9 10 10 10 10 9 9 10 10 11 11 10 10 10 11 11 11 11 11 11 11 10 10 10 10 10 10 10 11 12 13 13 12 12 12 13 14 14 14 15 16 17 19 22 22 24 25
8 8 8 8 7 7 7 8 8 8 8 8 8 9 9 10 11 11 11 11 11 11 11 10 10 11 13 14 15 16 16 16 15 15 14 13 11 10 10 10 10 11 10 10 9 9 9 10 10 10 10 10 11 11 11 11 11 12 12 11 11 10 10 10 10 10 10 11 12 13 13 12 11 11 11 11 11 11 12 12 13 14 15 15 16 19
8 8 8 8 8 7 7 8 8 8 8 9 9 10 10 9 10 10 10 10 10 10 11 11 11 11 11 12 13 14 15 13 13 12 12 10 9 9 10 10 10 11 10 10 10 9 10 10 11 11 11 11 11 11 10 11 11 12 13 11 10 9 10 10 10 10 10 11 11 12 12 11 11 11 11 11 11 11 12 11 12 13 13 12 12 13
8 8 8 7 8 8 8 8 8 8 9 9 8 8 8 8 8 9 9 9 9 9 9 10 10 10 10 11 12 13 13 13 13 12 10 10 11 11 10 10 10 10 10 10 10 10 10 11 11 12 11 11 12 12 12 12 13 14 15 12 11 11 12 12 12 11 11 11 11 11 12 12 12 12 12 12 12 11 11 11 12 13 13 12 11 11
8 8 8 7 7 8 8 8 9 9 9 8 8 8 8 8 8 8 9 9 9 9 8 8 9 9 11 11 11 12 12 11 11 12 12 12 12 11 10 10 9 9 10 10 10 11 11 11 11 11 11 11 11 11 11 12 13 13 13 13 13 13 13 12 11 10 10 11 11 11 13 12 12 12 12 12 12 11 11 12 13 15 14 12 11 10
8 8 8 8 8 8 9 9 9 9 8 8 8 8 8 7 8 8 9 9 9 9 9 9 9 9 10 11 11 11 11 10 11 12 11 11 11 11 11 11 11 10 9 10 10 11 11 12 12 11 11 11 11 11 12 13 13 13 12 13 12 11 9 9 9 9 10 11 11 11 11 11 11 11 11 11 11 11 11 13 15 16 15 13 12 11
7 7 7 8 8 8 8 8 8 8 8 8 8 8 8 8 8 9 9 9 9 9 9 8 8 9 10 11 11 11 11 10 11 12 11 12 11 11 11 11 11 11 10 9 9 10 11 11 11 11 11 10 11 11 12 12 12 12 12 12 12 11 10 10 10 11 11 11 11 11 11 11 11 11 11 11 11 11 11 12 12 12 13 12 12 11
7 7 8 8 8 8 8 8 8 8 8 8 8 8 8 8 9 9 8 8 9 9 9 8 8 8 9 10 10 10 10 10 10 10 10 11 13 13 12 11 10 10 10 10 9 9 10 10 11 11 10 10 10 11 12 12 13 13 13 13 12 12 12 12 12 12 12 12 11 11 11 11 11 11 12 12 12 12 11 12 12 12 12 11 11 11
7 7 8 8 8 8 9 9 9 9 8 9 9 9 8 8 8 8 9 9 9 9 9 8 8 8 9 10 10 10 10 10 10 10 9 9 10 10 10 10 10 10 9 9 10 10 10 10 11 11 10 10 10 11 12 12 12 12 12 12 12 12 12 12 11 11 12 12 12 12 12 12 12 11 12 12 13 12 12 11 12 12 12 11 11 10
7 8 8 8 8 8 8 9 9 9 9 9 9 9 9 8 8 8 9 9 9 9 9 9 9 9 10 10 10 10 10 11 11 10 10 10 9 9 9 9 10 10 10 10 10 10 11 11 11 11 10 10 11 11 11 12 12 12 12 12 11 11 11 11 11 11 11 11 12 12 12 11 11 12 13 13 13 13 12 11 11 11 11 11 10 10
8 8 8 8 8 8 9 8 8 9 9 9 9 9 9 9 9 10 9 9 9 9 9 9 9 9 10 10 10 10 11 11 11 11 11 10 10 10 9 9 9 10 10 11 11 12 12 12 12 11 11 10 11 11 12 12 12 11 11 11 11 11 12 11 11 11 11 11 12 12 10 10 10 12 13 13 13 13 12 12 12 11 10 10 10 10
8 8 8 8 8 9 9 9 9 9 9 10 10 10 9 10 11 11 9 9 9 9 8 9 9 10 10 10 10 11 11 12 11 11 11 10 10 9 9 9 9 9 10 10 10 10 10 11 11 11 10 10 11 11 12 11 11 11 11 10 10 11 11 11 11 11 11 11 12 12 10 10 10 11 12 13 14 14 14 13 12 11 10 9 9 9
8 8 8 8 8 9 9 9 9 9 10 10 10 10 10 10 10 9 9 9 9 8 8 9 9 10 10 10 11 11 11 11 11 11 10 10 9 9 9 10 10 10 10 9 8 8 8 7 8 9 10 11 11 11 10 11 11 10 10 10 10 10 10 11 11 11 11 11 12 12 12 11 11 11 11 12 13 14 14 14 13 12 11 10 10 10
8 8 8 8 8 9 9 9 9 10 10 10 10 10 10 10 10 9 9 9 9 9 9 9 9 10 10 11 11 11 11 11 11 11 11 10 9 9 10 10 10 10 10 9 8 7 6 6 6 6 7 10 11 10 8 9 10 10 10 10 9 8 9 10 11 11 11 11 11 11 12 11 11 10 10 10 11 13 13 13 13 13 12 11 11 12
Wind_Direction
304 308 310 310 306 301 298 299 300 299 300 300 301 302 303 302 301 300 299 298 297 296 295 293 292 292 292 293 293 293 293 293 293 293 293 293 294 294 294 294 294 294 294 294 294 293 293 293 293 293 293 292 292 291 290 290 289 288 288 287 287 287 286 286 285 285 285 284 284 283 283 282 282 282 281 282 282 282 282 282 282 281 281 280 279 278
304 305 305 304 301 299 297 300 301 301 302 303 302 302 301 300 298 296 295 294 294 294 294 294 293 293 293 293 293 293 293 292 292 293 293 294 294 295 295 296 295 295 295 295 294 294 294 293 293 292 291 291 290 289 288 288 287 287 287 286 286 286 285 285 285 284 284 284 283 283 283 283 283 282 282 283 283 283 282 282 281 280 280 279 278 277
305 302 300 300 300 299 299 302 302 301 300 300 299 299 298 296 295 294 294 295 295 295 295 294 294 293 293 292 291 291 292 292 293 294 295 296 296 297 297 297 297 296 296 295 294 294 293 292 292 291 290 289 289 288 288 288 287 287 287 287 286 286 285 285 285 284 284 284 284 283 283 283 283 283 283 283 283 282 281 280 279 279 278 277 277 276
301 299 301 301 300 299 299 301 301 300 297 296 295 294 293 293 293 294 296 297 297 296 294 292 292 291 290 289 289 291 292 294 295 297 298 298 299 299 299 298 297 296 295 295 294 293 292 291 291 290 289 289 289 289 288 288 288 288 287 287 286 286 286 285 285 285 284 284 284 284 284 284 284 284 284 283 282 282 281 280 279 279 278 277 276 276
297 298 301 301 299 297 297 297 297 296 293 291 291 292 292 293 294 296 297 296 294 293 291 290 289 289 289 289 291 294 296 298 299 300 301 301 300 300 299 298 297 295 294 294 293 292 291 291 291 290 290 290 289 289 289 289 288 288 287 287 286 286 286 285 285 285 285 285 285 285 285 285 285 285 284 284 283 282 282 281 280 279 278 278 277 276
295 296 299 298 297 296 296 294 293 291 290 289 290 292 296 297 297 296 294 292 291 289 289 289 289 289 290 293 296 299 301 302 302 302 302 301 300 299 298 297 295 294 293 293 292 292 292 291 291 291 291 290 290 289 289 288 288 288 287 287 287 287 286 287 287 287 287 287 287 286 286 286 285 285 285 284 283 282 282 281 280 279 278 278 277 276
294 294 296 295 293 291 290 290 290 291 292 293 294 296 296 295 294 292 290 289 289 289 289 290 291 292 295 298 302 304 305 304 303 302 301 300 298 297 296 295 294 294 293 292 292 292 292 292 291 291 291 290 290 290 290 289 289 289 289 289 289 289 289 289 289 288 288 288 288 287 287 286 286 285 284 284 283 282 281 280 279 279 278 277 276 275
296 295 293 292 291 289 285 285 288 292 295 298 298 297 294 291 289 288 288 289 290 291 293 294 295 297 300 304 306 306 305 303 302 300 299 298 296 295 295 294 294 293 293 292 292 292 292 292 292 291 291 291 291 291 291 291 291 291 291 291 291 291 291 290 290 290 289 289 288 287 287 286 285 285 284 283 282 281 280 279 279 278 277 276 275 275
293 293 291 287 287 289 290 289 290 293 295 295 295 295 296 294 292 291 290 292 294 296 299 300 302 302 303 306 306 304 302 298 297 295 295 295 294 294 294 293 293 293 293 292 292 292 292 292 292 292 292 292 292 293 293 293 293 293 293 292 292 291 291 290 290 289 289 288 288 287 286 285 285 284 283 282 281 280 279 279 278 277 276 275 275 274
287 287 287 285 285 286 290 293 294 294 290 288 288 291 294 297 299 299 298 298 299 301 302 304 304 304 304 304 302 300 297 294 293 292 292 293 293 294 294 294 293 293 293 293 293 294 294 294 294 294 294 294 294 294 294 293 293 293 292 292 291 290 290 289 288 288 288 287 287 286 285 285 284 283 282 281 280 279 278 277 276 275 274 273 273 272
285 285 285 286 285 284 281 287 292 295 294 292 291 291 292 297 301 303 304 304 304 304 303 303 304 304 304 302 300 297 294 292 291 291 291 292 293 294 294 294 294 294 294 295 295 295 295 295 295 295 294 294 294 293 293 293 292 292 291 291 290 289 289 288 288 287 287 287 286 286 285 284 283 282 281 280 279 277 276 275 274 273 272 271 271 271
287 287 286 286 287 288 287 289 293 297 301 300 299 298 297 299 301 302 303 304 306 306 305 303 301 300 299 299 297 295 293 291 291 291 292 293 294 295 295 295 295 296 296 296 296 296 296 296 295 294 294 293 293 292 292 292 291 291 291 290 289 289 288 288 287 287 287 286 286 285 284 284 283 282 281 280 278 277 276 275 274 273 272 271 271 270
284 284 283 285 289 294 298 301 302 302 303 302 301 301 302 304 303 302 301 303 305 306 306 302 299 295 293 293 292 292 292 291 291 292 294 295 297 298 298 297 297 297 298 297 296 295 295 295 294 293 293 292 292 292 292 291 291 290 290 290 289 289 288 288 287 287 286 286 285 285 284 283 283 282 281 280 279 278 277 277 276 275 274 273 272 271
284 284 285 290 296 300 303 304 303 302 301 300 301 301 303 305 305 304 302 301 302 303 302 298 295 293 291 290 289 290 291 292 293 294 295 295 297 299 300 299 298 298 298 296 294 293 293 293 293 292 292 291 291 291 291 291 290 290 290 290 289 289 288 288 287 286 286 285 285 284 284 283 283 282 281 280 280 279 278 277 276 276 275 274 273 272
288 293 297 299 301 302 302 301 299 299 299 300 301 301 303 304 305 305 303 302 301 300 298 294 292 289 288 288 289 291 294 295 296 296 296 296 297 300 302 300 298 296 295 293 291 291 292 291 290 290 290 290 289 290 290 290 290 290 290 290 290 289 288 287 287 286 286 285 285 285 284 283 283 282 281 280 280 279 278 277 276 276 275 274 273 272
296 300 300 300 299 298 297 297 298 298 300 301 302 303 304 304 304 303 301 299 298 298 296 294 293 290 286 286 291 296 299 299 298 298 298 298 300 302 303 299 296 293 292 290 290 290 291 289 288 287 288 289 290 290 291 291 291 291 291 290 290 289 288 288 287 287 287 286 286 285 285 284 283 282 282 281 280 279 278 277 277 276 275 274 273 272
299 298 296 295 295 295 296 296 297 298 300 301 301 301 301 301 301 300 296 295 295 294 293 293 294 295 297 297 299 301 303 301 299 298 299 298 299 300 301 296 293 291 290 290 289 289 290 289 288 288 288 290 291 291 292 292 292 291 291 290 290 290 290 289 289 289 289 288 287 286 285 285 284 283 282 281 280 279 278 277 276 275 274 274 273 272
295 294 293 292 292 294 297 297 297 298 298 298 298 298 297 297 296 294 292 290 290 289 289 289 291 296 302 303 304 305 308 304 302 300 298 296 296 297 297 292 289 288 289 289 289 289 290 289 290 290 290 291 291 292 292 292 292 291 291 291 291 291 291 291 291 290 289 289 288 287 286 285 284 283 281 280 279 278 277 276 275 274 273 272 272 271
290 290 291 291 292 293 295 295 296 297 296 296 297 298 296 294 292 290 287 285 283 283 286 290 294 297 300 299 300 304 308 304 301 298 295 293 293 294 295 291 289 288 288 289 290 291 291 290 289 289 290 291 291 291 292 292 292 292 292 293 293 292 292 292 291 290 289 288 287 286 285 284 283 282 281 280 279 278 277 276 274 273 273 272 271 270
287 287 288 290 292 293 292 291 292 293 294 296 297 297 295 292 288 285 283 282 282 283 289 295 298 299 299 297 298 300 304 303 299 294 290 289 290 292 295 293 291 290 289 289 290 292 292 290 289 289 290 290 291 292 293 293 293 293 293 293 293 292 292 291 290 290 289 288 287 286 285 284 283 282 281 281 280 279 278 277 276 274 273 272 271 270
287 287 287 290 292 293 291 290 291 292 294 297 297 294 290 286 283 281 281 285 290 294 299 298 298 298 298 296 295 297 300 299 295 291 288 288 289 291 294 293 291 290 289 290 291 291 290 288 287 288 289 291 293 293 294 294 294 294 293 293 292 291 291 290 289 289 288 288 287 287 286 285 285 284 283 283 282 281 280 279 278 277 275 274 272 271
289 290 291 291 290 290 289 291 292 293 294 293 289 284 282 281 281 284 291 298 301 302 301 298 296 295 294 290 290 291 294 292 289 287 289 288 288 290 293 293 292 290 289 290 291 291 289 289 289 290 292 294 294 295 294 294 293 293 292 292 291 291 290 290 289 289 288 288 288 288 287 287 287 286 285 285 284 283 282 281 280 279 277 276 275 273
289 290 292 291 289 288 288 290 290 290 288 283 279 276 277 281 289 298 307 308 305 302 298 294 291 289 286 284 285 286 287 285 284 284 286 287 289 291 295 294 291 289 288 290 293 294 294 293 293 294 295 294 294 294 294 293 292 292 292 291 291 291 290 290 289 289 288 288 288 289 288 288 288 287 286 285 284 283 283 282 281 280 279 278 276 275
285 286 288 287 285 284 284 285 284 282 280 276 275 277 283 292 298 302 305 303 300 296 292 290 287 284 281 282 283 284 286 287 288 288 285 285 287 290 294 294 291 289 288 291 295 298 298 296 295 294 294 293 293 293 293 292 292 292 291 291 291 291 290 290 290 290 290 289 289 289 289 288 287 286 285 284 283 282 281 280 279 279 278 277 276 275
284 285 285 284 283 282 283 283 283 284 285 286 289 293 298 301 302 302 300 297 293 290 288 288 286 286 285 287 288 288 290 292 292 290 287 285 285 287 291 292 292 291 291 294 298 299 299 296 294 293 292 292 292 292 292 292 292 292 291 291 292 292 292 292 292 291 291 290 289 289 288 287 286 285 284 283 282 281 280 279 278 277 276 275 275 274
289 288 288 287 287 288 289 290 291 294 297 299 302 304 305 305 303 300 295 291 290 290 290 289 288 288 290 291 291 291 292 293 292 288 285 285 286 287 290 292 292 292 293 296 298 299 297 295 294 294 293 291 291 291 291 291 292 292 293 293 294 294 294 293 293 292 291 290 289 288 287 286 285 284 284 283 282 281 280 279 278 277 277 276 275 274
293 291 290 290 292 293 295 297 299 301 302 303 303 303 303 303 300 295 290 290 291 293 291 290 289 290 292 291 290 291 293 293 291 287 284 284 285 287 290 293 295 295 296 297 297 297 296 294 294 294 292 290 289 290 291 292 294 295 296 296 296 295 295 294 293 292 291 290 289 288 287 286 285 284 283 283 282 282 281 281 281 280 279 279 277 275
292 291 292 294 296 299 301 303 304 305 305 304 303 302 301 299 294 290 288 291 293 292 288 288 289 291 292 292 292 292 292 291 289 287 285 284 283 286 291 296 298 299 299 297 296 294 292 291 291 291 290 290 290 291 293 296 297 298 297 297 296 295 294 293 292 292 291 290 289 288 287 286 285 285 284 284 283 283 283 282 282 282 282 281 280 277
291 292 294 298 302 305 307 307 306 305 303 302 301 299 298 292 286 284 286 290 290 288 285 285 286 288 291 292 292 291 289 287 287 289 292 290 286 287 293 298 299 300 301 299 296 293 288 286 286 288 290 293 294 296 297 299 299 298 297 296 295 294 293 293 292 292 291 290 290 289 288 287 287 286 285 285 284 284 283 283 283 283 283 281 278 274
295 299 302 306 308 309 308 306 303 301 300 298 298 296 294 287 281 280 282 284 284 283 283 284 286 288 290 292 292 290 285 284 289 297 305 298 291 290 296 297 298 300 303 303 301 297 291 287 286 289 293 296 298 299 299 299 297 296 295 294 294 293 293 293 293 292 292 291 291 290 290 289 288 288 287 286 286 285 284 284 284 284 282 279 275 272
306 309 310 310 308 306 304 300 298 296 296 296 296 295 292 286 281 278 278 278 278 279 280 283 285 286 289 291 291 288 285 288 297 306 310 298 291 291 296 296 296 297 300 302 302 301 300 297 294 293 295 297 297 297 296 296 295 294 294 294 293 293 293 293 294 294 293 293 292 292 291 290 290 289 288 287 287 286 285 285 285 285 282 278 274 271
310 310 308 306 304 302 299 297 295 293 293 293 293 292 290 287 284 281 278 277 276 276 278 281 283 283 283 282 281 281 283 289 297 302 303 295 289 289 293 293 293 294 295 293 292 294 298 301 302 302 300 297 295 295 294 295 294 294 294 294 293 292 294 295 295 295 294 294 293 293 292 292 291 290 289 288 287 286 285 285 285 284 281 277 274 271
308 306 303 302 300 298 296 294 293 292 292 292 293 292 291 289 286 283 280 278 277 276 277 279 281 281 281 278 277 276 278 283 290 295 297 293 290 289 291 291 291 292 293 289 285 283 284 291 297 301 300 296 294 294 295 295 294 293 293 293 293 293 295 296 296 295 295 294 294 293 293 292 291 290 289 288 287 286 285 284 284 283 280 277 274 272
304 302 301 300 298 297 295 293 293 294 294 295 295 295 294 291 288 286 283 281 278 276 274 275 277 279 280 280 278 277 277 281 287 292 296 293 289 287 289 289 290 291 292 290 286 284 281 285 290 295 298 297 295 294 295 296 295 294 292 292 292 293 295 296 296 295 294 294 293 292 292 291 290 289 287 286 285 284 284 283 283 282 281 279 277 275
301 300 300 299 298 297 297 296 297 297 298 298 297 296 295 293 291 289 287 284 281 277 273 271 271 272 274 276 277 278 279 282 287 291 293 289 286 285 287 285 286 288 289 287 287 287 285 285 288 291 295 297 296 295 294 294 294 294 292 291 291 292 293 294 295 294 294 293 291 290 289 288 287 286 285 284 283 283 283 283 283 283 282 281 279 277
300 299 299 299 299 299 299 300 301 301 301 300 298 297 295 295 294 292 290 287 284 280 277 273 270 267 266 267 270 273 276 281 285 287 287 284 283 282 282 282 283 285 285 285 285 285 285 286 288 290 292 294 295 296 295 295 295 294 293 292 291 290 290 291 291 291 291 290 289 287 286 286 285 283 283 283 283 283 283 284 284 283 283 281 280 278
299 299 300 300 301 301 302 302 303 303 302 300 299 298 297 296 295 293 291 287 284 281 278 275 272 268 264 263 263 265 270 276 280 282 281 279 278 277 277 278 280 281 281 282 283 284 284 286 288 289 288 288 291 295 299 301 299 297 294 293 292 291 290 290 289 288 287 286 286 285 285 285 285 284 283 283 284 284 284 284 283 283 283 282 280 279
299 300 301 302 302 303 303 303 303 302 302 301 300 300 298 296 294 292 289 286 282 279 277 275 273 270 268 267 266 266 268 272 274 276 276 275 273 273 273 276 277 276 275 276 278 281 282 284 287 288 288 287 288 290 295 299 299 298 295 293 292 291 290 290 289 288 286 285 285 285 285 285 284 284 283 283 283 284 284 283 282 283 283 282 281 279
299 300 301 303 303 303 303 302 302 301 301 300 299 298 297 294 292 290 287 285 283 280 278 277 277 276 274 272 271 271 272 273 273 274 273 271 270 269 269 272 274 275 274 273 273 274 276 278 280 284 287 288 289 290 291 293 294 294 296 295 293 291 289 290 290 289 287 287 287 286 286 284 283 282 281 282 282 283 283 284 284 284 285 285 282 280
300 300 301 302 303 302 301 300 300 300 299 298 297 296 295 293 291 289 287 286 286 285 285 283 282 281 280 280 279 278 278 277 276 275 273 270 266 264 265 268 271 273 273 272 270 270 270 272 274 277 280 284 287 289 291 290 291 294 297 298 296 295 295 295 293 291 288 286 285 284 284 283 282 281 281 282 282 283 283 284 284 285 285 284 283 281
302 302 302 303 302 301 299 298 298 297 297 296 296 295 293 293 292 293 293 292 291 290 290 289 288 286 285 283 283 282 282 279 277 275 272 267 263 261 262 264 266 269 271 271 270 268 268 270 273 276 277 279 282 285 286 287 290 293 296 294 293 293 295 294 292 289 287 284 282 282 283 284 285 284 283 283 281 280 279 280 281 282 282 278 275 275
302 303 303 304 303 302 300 298 297 295 294 293 292 291 292 293 294 294 295 295 295 294 294 294 294 293 291 289 287 285 283 281 278 276 273 268 264 262 262 263 264 266 269 271 271 270 269 270 272 275 276 278 281 283 285 286 289 290 291 290 291 293 293 290 288 286 286 285 285 284 285 285 285 285 284 283 281 280 279 278 278 278 278 276 272 269
303 302 303 302 301 300 299 298 297 296 294 293 291 290 290 291 291 291 292 292 293 294 295 295 294 293 292 291 291 291 289 285 282 280 278 275 271 268 267 266 266 266 268 271 272 272 271 270 271 272 274 276 278 280 284 287 289 289 287 288 290 293 293 291 290 289 287 285 285 284 284 284 284 284 284 284 284 283 283 280 279 277 276 275 273 270
301 301 301 300 300 300 300 300 298 297 295 293 292 291 290 290 290 290 290 289 291 292 294 294 293 291 288 288 290 293 293 292 290 287 285 283 279 276 273 270 269 267 266 267 270 273 275 274 272 271 273 275 276 278 281 284 286 287 286 286 285 284 282 286 290 291 289 286 283 283 283 284 286 287 287 286 286 286 285 284 281 278 276 274 273 271
300 300 301 301 302 302 302 300 299 298 296 294 293 292 292 293 293 292 290 290 291 292 293 294 293 291 288 288 290 292 294 295 296 294 292 288 285 283 280 278 275 273 269 266 266 268 272 275 275 275 275 274 274 275 278 281 283 284 284 284 282 280 277 281 284 286 287 286 286 285 286 288 290 291 290 289 288 287 286 285 284 281 279 275 272 270
301 301 302 302 302 301 300 300 299 298 296 295 294 294 295 295 294 293 291 292 292 292 292 292 291 289 288 290 292 293 294 295 295 296 296 294 291 289 285 282 279 277 274 270 268 266 266 269 273 277 279 277 274 273 273 277 280 282 283 283 283 282 281 281 282 283 284 286 287 288 290 292 293 292 291 291 290 289 287 285 283 281 280 278 275 273
302 302 303 302 301 300 299 299 298 298 298 297 297 297 297 298 297 296 294 293 293 292 292 291 288 286 285 288 290 292 293 294 295 296 296 296 294 292 289 286 283 280 277 275 272 269 266 265 267 270 274 276 277 276 275 276 277 279 281 283 284 284 283 283 283 283 284 285 287 289 293 295 295 293 291 291 291 290 289 286 283 281 280 279 278 278
303 303 302 301 300 299 298 299 299 299 299 298 298 298 298 299 300 299 297 295 293 292 291 290 287 285 285 286 288 290 291 292 293 294 295 296 296 295 293 291 288 285 282 279 276 273 270 266 263 263 265 269 272 275 277 277 276 277 278 281 283 284 283 283 284 285 286 286 287 290 294 295 294 294 294 293 292 291 290 290 288 286 283 281 281 281
302 302 301 300 299 299 298 299 300 299 299 299 299 299 299 299 299 298 296 294 292 291 289 288 287 287 287 287 288 289 290 291 291 292 294 295 296 297 296 295 293 291 288 283 279 276 273 268 262 257 255 258 263 269 273 275 275 276 278 280 282 283 284 286 288 290 291 291 291 291 291 290 290 290 291 291 291 291 292 293 292 291 289 286 285 285
301 299 299 299 298 298 299 300 300 300 299 299 299 299 299 299 298 296 294 292 291 289 288 288 288 288 288 289 290 290 291 291 291 292 293 295 297 298 298 298 297 296 294 291 287 284 281 276 266 257 251 253 257 263 270 274 277 279 280 281 283 286 288 290 292 293 295 294 294 293 292 289 287 286 286 286 287 290 292 294 295 296 296 294 293 291
301 299 299 298 298 298 299 299 299 298 297 297 297 297 298 298 297 295 294 293 291 290 289 288 288 288 288 289 290 291 291 292 292 293 294 296 298 298 298 298 298 298 297 297 296 295 294 292 287 277 265 262 263 266 272 278 283 286 286 286 288 290 291 292 293 294 295 295 294 293 291 289 286 284 282 284 287 290 294 296 298 299 300 300 299 297